Cloud_Cover
0 1 0 3 3 3 5 5 5 4 3 13 74 56 99 21 3 7 0 0 4 3 2 0 0 0 0 4 5 2 6 6 12 64 94 98 92 67 96 28 55 0 0 0 0 0 0 1 49 25 99 2 54 72
5 4 5 5 5 5 75 82 5 13 48 5 32 36 11 4 0 12 0 7 99 64 0 0 0 0 0 0 0 1 21 15 99 73 97 48 1 2 100 82 59 14 0 0 0 0 0 3 100 89 95 0 1 3
5 5 5 5 14 9 68 34 13 8 22 52 8 20 64 9 2 8 6 1 28 18 2 0 0 0 1 0 0 0 0 19 100 77 8 38 100 100 92 14 96 3 1 12 7 17 23 65 33 100 12 0 0 5
36 61 8 72 48 5 4 5 5 5 12 80 5 13 19 66 97 36 30 2 52 100 72 0 2 1 6 35 37 4 2 55 60 17 79 100 100 57 90 83 93 17 8 82 99 60 16 20 62 0 0 0 0 0
100 88 6 8 5 5 5 5 5 5 57 37 21 100 100 98 100 100 91 5 31 75 3 0 0 0 3 74 94 74 61 41 37 29 87 79 28 81 100 90 5 20 6 16 46 0 9 3 0 98 16 0 0 5
100 100 94 99 80 57 56 65 71 94 57 87 15 54 100 100 95 11 7 80 97 100 100 38 0 2 2 42 100 84 93 57 100 5 5 8 86 12 100 100 99 11 5 5 95 100 100 100 100 100 78 99 12 0
100 100 100 97 100 44 96 27 87 100 18 29 56 39 100 100 71 6 15 81 97 93 89 52 5 86 67 100 82 79 63 26 9 84 73 99 100 100 100 100 100 100 9 34 100 100 100 100 100 100 100 100 96 4
100 100 99 98 95 66 80 10 67 98 5 43 91 54 100 100 92 42 35 78 98 100 100 97 80 100 100 100 100 100 100 80 92 97 100 100 100 100 100 100 100 100 100 100 100 100 100 100 100 100 100 72 100 99
100 100 100 100 100 100 90 52 75 38 29 74 95 93 100 100 99 79 83 100 100 100 100 100 100 100 100 100 100 100 100 90 100 100 100 100 100 100 100 100 100 100 100 100 100 100 100 100 100 100 76 5 89 15
100 100 100 100 100 100 100 100 100 100 71 89 100 100 100 100 36 24 95 100 100 100 100 100 100 100 100 100 100 100 100 100 100 100 100 100 100 100 100 100 100 100 100 100 100 100 100 100 100 100 93 98 58 1
100 100 100 100 100 100 100 100 100 86 16 67 100 100 100 76 4 88 98 100 99 100 100 100 100 100 100 100 100 100 100 100 24 49 100 100 100 100 100 100 100 100 100 100 100 100 100 100 100 100 73 79 62 0
100 100 100 100 100 100 100 100 73 18 100 42 100 100 100 40 47 74 59 72 38 100 100 100 100 100 100 100 100 100 100 100 60 30 81 89 99 100 100 100 100 100 100 100 100 100 100 100 100 100 91 18 0 0
100 100 100 100 100 100 100 90 82 81 100 100 100 100 98 36 100 35 98 94 48 100 97 100 100 100 100 100 100 100 86 60 16 9 10 66 85 98 84 100 100 100 100 100 100 49 22 6 5 8 4 0 0 0
100 100 100 100 100 100 100 44 100 100 100 100 100 100 62 36 70 38 98 100 100 96 68 90 100 100 100 100 100 100 100 99 62 61 7 29 40 93 74 40 58 100 100 100 24 20 14 1 1 0 0 0 5 6
100 100 100 66 100 100 97 100 100 100 100 100 100 99 12 13 81 82 68 65 79 85 98 100 100 100 100 100 100 100 100 100 98 100 100 100 100 97 14 61 77 66 40 30 55 18 5 6 6 26 53 49 16 62
100 100 100 100 100 100 100 100 100 100 100 100 100 66 3 4 48 53 8 94 98 88 100 100 100 100 100 93 32 59 88 100 100 100 100 100 100 100 96 10 0 34 5 0 0 0 50 51 85 38 31 12 27 26
100 100 100 100 100 100 100 100 100 100 100 100 93 6 5 0 5 4 9 80 100 100 100 100 100 100 100 96 93 100 100 100 100 100 88 100 81 100 92 18 22 8 8 3 5 98 81 90 100 100 13 10 50 59
100 100 100 100 100 100 100 100 100 100 100 94 5 5 5 5 58 97 99 42 100 99 100 100 100 93 88 100 100 100 100 100 100 76 91 91 88 100 45 5 98 53 43 26 5 34 95 100 100 100 58 6 6 5
100 100 100 100 100 100 100 100 100 100 100 6 5 5 5 5 5 5 5 84 100 81 85 100 100 31 100 100 100 100 100 100 100 98 6 30 100 69 5 72 100 46 11 59 68 24 7 31 66 78 100 58 32 83
100 100 100 100 100 100 100 100 100 100 100 76 13 13 5 5 6 68 38 96 92 100 99 100 100 100 78 100 100 100 100 100 100 97 70 70 57 98 95 75 17 21 88 99 80 95 100 40 92 95 58 22 6 5
100 100 100 100 100 100 100 100 100 100 53 100 12 17 74 77 82 92 95 96 100 100 100 100 100 100 64 85 81 72 100 100 100 30 57 94 95 100 97 100 100 87 99 94 100 100 100 100 97 84 48 74 4 4
100 100 100 100 100 100 100 100 91 79 15 27 5 5 75 87 97 99 96 38 100 100 100 100 100 98 54 7 24 15 37 98 32 100 100 100 100 100 100 97 100 100 100 100 100 100 86 63 30 5 5 14 24 8
100 100 100 100 100 100 100 92 6 5 35 8 16 18 74 88 94 66 65 76 100 100 100 95 96 49 10 61 88 55 100 87 100 100 100 100 100 86 100 71 81 77 81 94 100 79 42 39 5 5 31 43 62 91
100 100 100 100 100 100 96 45 5 58 96 11 10 76 82 100 86 87 100 100 94 100 100 46 78 93 100 98 100 100 100 100 100 97 100 96 98 78 94 100 100 100 48 71 36 41 5 29 21 5 5 0 11 26
100 100 100 100 100 96 59 59 56 73 64 11 12 34 83 95 93 100 100 100 89 39 95 100 100 100 98 60 98 100 100 100 100 100 99 100 100 99 100 100 92 96 99 92 27 13 67 45 79 35 3 5 0 3
100 100 90 94 68 18 5 17 25 21 34 51 76 93 55 90 93 100 100 100 100 100 90 100 80 48 92 100 100 100 100 100 99 100 82 99 100 100 100 100 100 70 10 13 81 95 38 96 75 30 4 4 4 3
100 98 93 90 99 95 98 67 62 98 97 100 92 100 100 96 100 100 98 68 96 100 94 59 96 100 100 100 100 100 100 100 87 59 78 93 83 100 96 100 88 14 23 94 100 99 23 85 44 5 2 3 5 17
100 97 99 87 92 100 97 53 94 14 89 75 100 56 100 100 100 100 100 90 88 66 55 98 99 100 100 100 100 75 98 97 100 13 81 100 100 100 100 66 63 81 96 100 100 62 64 75 14 5 3 3 8 33
80 100 100 100 97 15 6 5 24 93 97 78 72 100 100 100 100 100 100 88 91 100 94 86 100 94 97 93 82 95 58 38 74 100 100 100 100 89 28 51 75 100 100 100 97 47 5 15 65 63 97 90 100 100
100 100 99 83 23 5 26 8 32 88 100 98 72 100 100 100 98 100 100 100 93 100 100 100 100 100 100 99 100 59 53 34 97 100 98 90 34 96 93 100 100 100 96 91 5 5 8 96 100 100 95 96 100 100
56 28 6 8 24 5 5 11 5 7 51 78 100 92 87 79 98 100 98 77 77 100 88 97 94 99 98 100 84 14 60 99 100 100 96 65 98 96 100 95 76 97 97 17 30 88 100 100 100 99 100 100 31 86
36 69 64 20 98 12 5 5 5 20 47 99 90 56 85 91 98 93 100 100 100 100 100 100 100 100 69 100 98 100 100 100 100 100 100 100 100 100 91 100 100 94 54 99 100 100 100 64 89 100 96 43 39 68
66 61 46 80 88 96 46 15 31 89 100 100 61 94 100 100 97 100 100 100 100 100 62 100 99 68 100 100 100 100 100 100 100 100 100 100 100 100 96 81 22 14 15 53 21 83 72 23 16 12 46 85 88 88